Von / Nach
Hinflug - Rückflug
Erwachsene / Kinder
Promocode
Nächste Ankünfte Flughafen St.Gallen-Altenrhein

ZeitErw.vonFlugInfo
17:3517:35WienPE105
planmässig
20:5520:55WienPE107
planmässig
Nächste Abflüge Flughafen St.Gallen-Altenrhein

ZeitGeplantnachFlugInfo
18:1518:15WienPE106
planmässig

Flugplan

Bitte wählen Sie Ihren gewünschten Abflug- und Zielflughafen aus.


Live aus Altenrhein
LIVE
LSZR 221250Z 31003KT 240V350 8000 BKN016 M00/M04 Q1008 NOSIG RMK J
Zeitraffer heute
2019-01-22 00:14:16
LSZR 212250Z AUTO VRB01KT 4900 BR OVC011 M00/M02 Q1018
Zeitraffer gestern
2019-01-21 00:14:24
LSZR 202250Z AUTO VRB01KT 4700 BR OVC060 M02/M03 Q1017

Wien

Ab EUR 119.- pro Strecke.

 

Jetzt buchen

Ibiza

Ab EUR 279.- hin & zurück.

 

Jetzt buchen

Mallorca

Ab EUR 349.- hin & zurück.

 

Jetzt buchen

Pula

Ab EUR 399.- hin & zurück.

 

Jetzt buchen

Sardinien

Ab EUR 299.- hin & zurück.

 

Jetzt buchen

General Aviation

Business & General Aviation LSZR.

 

More information

 

 Shuttlebus


Nutzen Sie unseren

Shuttlebus zwischen Altenrhein

und Dornbirn & Bregenz.

 

Mehr dazu

 

People's Online-Shop


Von der Überraschung an

Bord über Badetücher bis

zum Flugzeugmodell.

 

Mehr dazu


News


Aktuelles von People's

und dem Flughafen

St.Gallen-Altenrhein.

 

Mehr dazu

 

Ad-hoc Charter


Chartern Sie eine unserer

Embraer170 für Ihren eigenen

Anlass oder ACMI-Einsätze.


Mehr dazu

  

 

Teile dein People's-Erlebnis mit uns:

 

#peoplesairline bei Instagram